Weather History for Scottsbluff, NE

Change the Weather History Date:

Saturday, January 1, 2000

  Actual Average Record
Temperature  
Mean Temperature 32 °F 26 °F  
Max Temperature 48 °F 40 °F 64 °F (1998)
Min Temperature 16 °F 13 °F -31 °F (1924)
Degree Days  
Heating Degree Days 33 39  
Month to date heating degree days 39  
Since 1 July heating degree days 2811  
Cooling Degree Days 0 0  
Month to date cooling degree days 0  
Year to date cooling degree days 0  
Moisture  
Dew Point 14 °F    
Average Humidity 51    
Maximum Humidity 77    
Minimum Humidity 25    
Precipitation  
Precipitation 0.00 in 0.01 in 0.47 in (1976)
Month to date precipitation 0.01  
Year to date precipitation 0.01  
Snow  
Snow 0.00 in 0.20 in 4.70 in (1976)
Month to date snowfall 0.2  
Since 1 July snowfall 16.2  
Snow Depth -    
Sea Level Pressure  
Sea Level Pressure 29.71 in    
Wind  
Wind Speed 5 mph (North)    
Max Wind Speed 14 mph    
Max Gust Speed -    
Visibility 10 miles    
Events      
T = Trace of Precipitation, MM = Missing Value Source: NWS Daily Summary

Daily Weather History Graph

Daily Weather History Graph

Search for Another Location

Airport:

Trip Planner

Search our weather history database for the weather conditions in past years. The results will help you decide how hot, cold, wet, or windy it might be!

Date:

Astronomy

Jan. 01, 2000 Rise Set
Actual Time 7:22 AM MST 4:33 PM MST
Civil Twilight 6:50 AM MST 5:05 PM MST
Nautical Twilight 6:15 AM MST 5:40 PM MST
Astronomical Twilight 5:41 AM MST 6:14 PM MST
Moon 2:37 AM MST (1/1) 1:32 PM MST (1/1)
Length of Visible Light 10h 14m
Length of Day
9h 11m
Waning Crescent, 21% of the Moon is Illuminated
Jan 1
Waning Crescent
Jan 6
New
Jan 14
First Quarter
Jan 20
Full
Jan 28
Last Quarter

Hourly Weather History & Observations

Time (MST) Temp. Windchill Dew Point Humidity Pressure Visibility Wind Dir Wind Speed Gust Speed Precip Events Conditions
12:54 AM 25.0 °F 19.3 °F 12.9 °F 60% 29.79 in 10.0 mi East 4.6 mph - N/A   Clear
1:54 AM 25.0 °F 19.3 °F 12.9 °F 60% 29.78 in 10.0 mi NE 4.6 mph - N/A   Clear
2:54 AM 26.1 °F 20.5 °F 12.9 °F 58% 29.76 in 10.0 mi East 4.6 mph - N/A   Clear
3:54 AM 19.0 °F 13.9 °F 10.9 °F 71% 29.78 in 10.0 mi WNW 3.5 mph - N/A   Clear
4:54 AM 16.0 °F - 10.0 °F 77% 29.78 in 10.0 mi Calm Calm - N/A   Clear
5:54 AM 21.0 °F 14.6 °F 12.0 °F 68% 29.78 in 10.0 mi NNE 4.6 mph - N/A   Clear
6:54 AM 21.0 °F 10.6 °F 12.0 °F 68% 29.79 in 10.0 mi SE 9.2 mph - N/A   Clear
7:54 AM 21.9 °F 15.7 °F 12.9 °F 68% 29.78 in 10.0 mi NNE 4.6 mph - N/A   Scattered Clouds
8:54 AM 28.9 °F 22.8 °F 14.0 °F 54% 29.76 in 10.0 mi East 5.8 mph - N/A   Clear
9:54 AM 32.0 °F 28.7 °F 15.1 °F 50% 29.75 in 10.0 mi South 3.5 mph - N/A   Clear
10:54 AM 37.0 °F 34.5 °F 16.0 °F 42% 29.71 in 10.0 mi Variable 3.5 mph - N/A   Clear
11:54 AM 43.0 °F 41.3 °F 15.1 °F 32% 29.65 in 10.0 mi North 3.5 mph - N/A   Clear
12:54 PM 44.1 °F 41.5 °F 12.9 °F 28% 29.61 in 10.0 mi Variable 4.6 mph - N/A   Clear
1:54 PM 46.9 °F - 12.9 °F 25% 29.58 in 10.0 mi WSW 6.9 mph - N/A   Clear
2:54 PM 48.0 °F - 15.1 °F 27% 29.58 in 10.0 mi West 5.8 mph - N/A   Scattered Clouds
3:54 PM 45.0 °F 40.6 °F 12.9 °F 27% 29.63 in 10.0 mi NW 8.1 mph - N/A   Clear
4:54 PM 37.0 °F 34.5 °F 10.9 °F 34% 29.67 in 10.0 mi North 3.5 mph - N/A   Clear
5:54 PM 30.0 °F 23.2 °F 10.0 °F 43% 29.69 in 10.0 mi WNW 6.9 mph - N/A   Clear
6:31 PM 33.8 °F 24.3 °F 15.8 °F 48% 29.61 in 10.0 mi NNE 13.8 mph - N/A   Clear
6:54 PM 32.0 °F 22.5 °F 15.1 °F 50% 29.69 in 10.0 mi NNE 12.7 mph - N/A   Clear
7:54 PM 30.9 °F 26.2 °F 15.1 °F 52% 29.72 in 10.0 mi North 4.6 mph - N/A   Clear
8:54 PM 30.9 °F 21.2 °F 17.1 °F 57% 29.69 in 10.0 mi North 12.7 mph - N/A   Scattered Clouds
9:54 PM 32.0 °F 24.2 °F 19.9 °F 61% 29.71 in 10.0 mi NNW 9.2 mph - N/A   Overcast
11:54 PM 32.0 °F 25.6 °F 19.9 °F 61% 29.72 in 10.0 mi WNW 6.9 mph - N/A   Overcast